Hourly Weather Roundup
Issued by NWS Central Illinois

Home | Current Version | Previous Version | Text Only | Print | Product List | Glossary On
Versions: 1 2 3 4 5 6 7 8 9 10 11 12 13 14 15 16 17 18 19 20 21 22 23 24 25 26 27 28 29 30 31 32 33 34 35 36 37 38 39 40 41 42 43 44 45 46 47 48 49 50
000
NZUS43 KILX 260410
HWRILX

AREA WEATHER ROUNDUP
NATIONAL WEATHER SERVICE, LINCOLN IL
1100 PM CDT SAT OCT 25 2014


CITY           SKY/WX    TMP DP  RH WIND       PRES   REMARKS
BLOOMINGTON    CLEAR     60  35  39 NW12      30.03S
CHAMPAIGN      CLEAR     52  42  69 NW9       30.01S
DECATUR        CLEAR     62  40  44 NW10      30.02S
FLORA          CLEAR     58  50  76 CALM      30.01S
GALESBURG      CLEAR     46  38  73 CALM      30.04S
JACKSONVILLE   CLEAR     55  45  68 CALM      30.04S
LACON          CLEAR     53  35  51 NW6       30.02S
LAWRENCEVILLE  HAZE      59  52  77 W5        30.00S VSB 1
LITCHFIELD     CLEAR     55  47  72 NW5       30.02F
$$


CITY           SKY/WX    TMP DP  RH WIND       PRES   REMARKS
LINCOLN        CLEAR     56  41  56 NW3       30.01R
MACOMB         CLEAR     51  39  64 NW6       30.07R
MATTOON        CLEAR     52  44  74 NW7       30.00S
MT CARMEL AP   CLEAR     59  54  82 CALM      29.99S
OLNEY-NOBLE AP CLEAR     55  50  82 CALM      30.01R
PARIS          CLEAR     55  47  75 NW3       30.01R
PEORIA         CLEAR     58  38  47 NW6       30.03S
PONTIAC        CLEAR     51  38  63 NW8       30.02S
RANTOUL        CLEAR     54  40  61 NW6       30.01S
ROBINSON       CLEAR     56  51  84 CALM      30.00S
SPRINGFIELD    CLEAR     58  41  53 NW7       30.03S
TAYLORVILLE    CLEAR     55  43  62 N6        30.02S
$$

...REGIONAL REPORTS...


CITY           SKY/WX    TMP DP  RH WIND       PRES   REMARKS
CHICAGO O`HARE CLEAR     53  30  41 NW7       29.97R
KANKAKEE       CLEAR     50  38  62 W6        29.99F
MOLINE         CLEAR     46  37  71 SW5       30.04S
MOUNT VERNON   CLEAR     50  46  87 CALM      30.02S
PITTSFIELD     CLEAR     59  45  60 CALM      30.05S
QUINCY         CLEAR     56  42  59 NE7       30.04S
ROCKFORD       CLEAR     50  29  44 NW8       30.03R
$$


CITY           SKY/WX    TMP DP  RH WIND       PRES   REMARKS
BURLINGTON     CLEAR     55  37  50 NW6       30.05R
CEDAR RAPIDS   CLEAR     46  36  68 NW7       30.05R
DES MOINES     CLEAR     54  39  57 CALM      30.07S
KIRKSVILLE     CLEAR     51  44  77 NE7       30.06S
OTTUMWA        CLEAR     47  38  71 NW3       30.06S
ST LOUIS       CLEAR     61  51  70 CALM      30.03S
$$


CITY           SKY/WX    TMP DP  RH WIND       PRES   REMARKS
TERRE HAUTE    CLEAR     61  45  55 NW6       29.99R
EVANSVILLE     CLEAR     56  52  86 CALM      30.00S
INDIANAPOLIS   CLEAR     58  40  51 NW9       29.97R
LAFAYETTE      CLEAR     54  34  46 NW7       29.97R
MADISON        CLEAR     50  28  42 CALM      29.99S
MILWAUKEE      CLEAR     55  27  34 NW10      29.95S
$$





USA.gov is the U.S. government's official web portal to all federal, state and local government web resources and services.